Location: Vihti�l�
(61.3833°N, 23.0667°E)
Time: 04:19:51
(UTC+00:00)

Meteor 2-4 Rocket - Pass Details

Date: 29 November 2020
Orbit: 798 x 909 km, 81.2° (Epoch: 22 January)

Event Time Altitude Azimuth Distance (km) Brightness Sun altitude
Exits shadow 05:22:56 - 341° (NNW) 3,358 6.4 -11.2°
Reaches altitude 10° 05:24:55 10° 343° (NNW) 2,604 5.9 -11.0°
Maximum altitude 05:30:53 79° 70° (ENE) 921 4.0 -10.4°
Drops below altitude 10° 05:36:42 10° 158° (SSE) 2,536 7.0 -9.7°
Sets 05:39:07 0° 160° (SSE) 3,456 7.7 -9.5°
